Location: Newark
(41.8600°N, 14.8800°E)
Time: 01:40:43
(UTC+00:00)

Hubble Space Telescope - Visible Passes

Search period start: 14 November 2019 00:00
Search period end: 24 November 2019 00:00
Orbit: 536 x 540 km, 28.5° (Epoch: 13 November)

Date Brightness Start Highest point End Pass type
(mag) Time Alt. Az. Time Alt. Az. Time Alt. Az.
20 Nov 3.4 17:58:12 10° SSW 17:58:42 11° S 17:58:42 11° S visible
21 Nov 3.3 17:47:16 10° SSW 17:48:44 12° S 17:48:44 12° S visible
22 Nov 3.2 17:36:26 10° SSW 17:38:14 13° S 17:38:45 12° S visible
23 Nov 3.2 17:25:42 10° SSW 17:27:31 13° S 17:28:49 11° SSE visible
